This demonstration page uses our WeatherBlox Daily Observations layout. Learn more.

Left ArrowRight Arrow

41.12389, -100.76542

Hourly Observations for September 3, 2020

Temp ( °F °C ) Dew Point ( °F °C ) Humidity (%) Winds ( mph kmh ) Pressure ( in mb ) Visibility ( mi km ) Precip ( " mm )
12:53 am 00:53 Clear 71 21.7 48 8.9 44 44 S 9 15 29.71 1006 10 16 0.00 0.00
1:53 am 01:53 Clear 72 22.2 50 10 46 46 VRB 3 6 29.71 1006 10 16 0.00 0.00
2:53 am 02:53 Clear 67 19.4 48 8.9 51 51 NNW 10 17 29.79 1009 10 16 0.00 0.00
3:53 am 03:53 Clear 70 21.1 45 7.2 41 41 NNE 20 31 29.81 1010 10 16 0.00 0.00
4:53 am 04:53 Clear 67 19.4 45 7.2 45 45 N 13 20 29.87 1011 10 16 0.00 0.00
5:53 am 05:53 Clear 65 18.3 42 5.6 43 43 N 16 26 29.93 1013 10 16 0.00 0.00
6:53 am 06:53 Clear 61 16.1 41 5 48 48 N 13 20 29.97 1015 10 16 0.00 0.00
7:53 am 07:53 Sunny 59 15 41 5 51 51 N 12 19 30.04 1017 10 16 0.00 0.00
8:53 am 08:53 Sunny 62 16.7 41 5 46 46 N 14 22 30.08 1019 10 16 0.00 0.00
9:53 am 09:53 Sunny 66 18.9 39 3.9 37 37 N 18 30 30.11 1020 10 16 0.00 0.00
10:53 am 10:53 Sunny 69 20.6 39 3.9 33 33 N 17 28 30.12 1020 10 16 0.00 0.00
11:53 am 11:53 Sunny 72 22.2 39 3.9 30 30 N 14 22 30.12 1020 10 16 0.00 0.00
12:53 pm 12:53 Sunny 76 24.4 41 5 29 29 N 8 13 30.10 1019 10 16 0.00 0.00
1:53 pm 13:53 Sunny 77 25 38 3.3 24 24 N 9 15 30.07 1018 10 16 0.00 0.00
2:53 pm 14:53 Sunny 79 26.1 37 2.8 22 22 W 6 9 30.07 1018 10 16 0.00 0.00
3:53 pm 15:53 Sunny 81 27.2 37 2.8 21 21 W 6 9 30.04 1017 10 16 0.00 0.00
4:53 pm 16:53 Sunny 81 27.2 38 3.3 21 21 S 7 11 30.02 1017 10 16 0.00 0.00
5:53 pm 17:53 Sunny 81 27.2 38 3.3 21 21 SSW 7 11 30.03 1017 10 16 0.00 0.00
6:53 pm 18:53 Sunny 79 26.1 40 4.4 25 25 Calm 30.03 1017 10 16 0.00 0.00
7:53 pm 19:53 Sunny 70 21.1 50 10 49 49 Calm 30.04 1017 10 16 0.00 0.00
8:53 pm 20:53 Clear 62 16.7 47 8.3 58 58 E 8 13 30.06 1018 10 16 0.00 0.00
9:53 pm 21:53 Clear 56 13.3 46 7.8 70 70 E 7 11 30.09 1019 10 16 0.00 0.00
10:53 pm 22:53 Clear 56 13.3 46 7.8 70 70 Calm 30.10 1019 10 16 0.00 0.00
11:53 pm 23:53 Clear 52 11.1 44 6.7 75 75 SE 6 9 30.10 1019 10 16 0.00 0.00

Powered by AerisWeather